Powrót do katalogu

COSMOS 970 DEB

AktywnyLEO
NORAD 10883·DEBRIS·🇷🇺 Russia

Wystrzelony Dec 21, 1977 z Baikonur Cosmodrome

Loading…

Następne Przeloty (najbliższe 24 godziny)

TLE

ŚwieżeSource: Space-Track

Epoka: Sep 14, 2026, 07:49 UTC

1 10883U 77121AE  26257.32596583  .00000139  00000-0  21591-3 0  9995
2 10883  65.8440   7.6049 0110998  49.6627 343.5950 13.76178790434567

Śledź COSMOS 970 DEB w czasie rzeczywistym z AllMySat

Download on the App Store